Flag for Uzbekistan Weather past 2 weeks in Tashkent, Uzbekistan

Now
86 °F

Passing clouds.


Feels Like: 83 °F
Forecast: 68 / 91 °F
Wind: 2 mph from Northwest

Location: Tashkent

Current Time: May 30, 2015 at 8:34:03 PM

Latest Report: May 30, 2015 at 8:00 PM


Visibility: N/A

Pressure: 29.89 "Hg

Humidity: 20%

Dew point: 41 °F

Location of TashkentLocation

Historic Weather in Tashkent — Graph

°F

Tashkent temperature yesterday

Maximum temperature yesterday: 91 °F (at 12:30 PM)
Minimum temperature yesterday: 64 °F (at 1:00 AM)
Average temperature yesterday: 79 °F

Past Weeks' High & Low Weather Summary

 TemperatureHumidityPressure
High95 °F (May 30, 3:00 PM)94% (May 16, 12:30 PM)30.12 "Hg (May 16, 12:30 PM)
Low55 °F (May 25, 5:00 AM)11% (May 30, 3:00 PM)29.62 "Hg (May 16, 6:00 AM)
Average73 °F42%29.94 "Hg
* Reported May 15 7:00 PM — May 30 7:00 PM, Tashkent, Weather by CustomWeather, © 2015

Note: Actual official high and low records may vary slightly from our data, if they occured in-between our weather recording intervals... More about our weather records

Advertising

Tashkent weather history for previous 24 hours

 ConditionsComfort  
Time TempWeatherWind HumidityBarometerVisibility
7:00 PM
Sat, May 30
90 °FPassing clouds.3 mph18%29.86 "HgN/A
6:30 PM91 °FPassing clouds.6 mph14%29.86 "HgN/A
6:00 PM91 °FPassing clouds.7 mph16%29.86 "HgN/A
5:30 PM93 °FSunny.7 mph13%29.86 "Hg10 mi
5:00 PM91 °FPassing clouds.10 mph15%29.86 "HgN/A
4:30 PM93 °FPassing clouds.7 mph14%29.86 "HgN/A
4:00 PM93 °FPassing clouds.8 mph13%29.86 "HgN/A
3:30 PM93 °FSunny.5 mph13%29.86 "Hg10 mi
3:00 PM95 °FPassing clouds.5 mph11%29.86 "HgN/A
2:30 PM93 °FPassing clouds.5 mph15%29.86 "HgN/A
2:00 PM93 °FPassing clouds.8 mph17%29.86 "HgN/A
1:30 PM91 °FSunny.5 mph18%29.86 "Hg10 mi
1:00 PM91 °FPassing clouds.6 mph21%29.86 "HgN/A
12:30 PM91 °FPassing clouds.9 mph18%29.86 "HgN/A
12:00 PM90 °FPassing clouds.8 mph18%29.89 "HgN/A
11:30 AM90 °FPassing clouds.7 mph21%29.89 "HgN/A
11:00 AM88 °FPassing clouds.7 mph22%29.89 "HgN/A
10:30 AM88 °FPassing clouds.7 mph22%29.86 "HgN/A
10:00 AM86 °FPassing clouds.5 mph24%29.86 "HgN/A
9:30 AM86 °FPassing clouds.5 mph25%29.86 "HgN/A
8:30 AM82 °FPassing clouds.7 mph26%29.86 "HgN/A
8:00 AM79 °FSunny.10 mph30%29.86 "Hg10 mi
7:30 AM77 °FSunny.10 mph32%29.86 "Hg10 mi
7:00 AM75 °FSunny.9 mph31%29.86 "Hg10 mi
6:30 AM75 °FSunny.12 mph31%29.86 "Hg10 mi
6:00 AM73 °FSunny.12 mph33%29.86 "Hg10 mi
5:30 AM72 °FSunny.10 mph33%29.83 "Hg10 mi
5:00 AM72 °FSunny.10 mph36%29.83 "Hg10 mi
4:30 AM72 °FClear.10 mph36%29.83 "Hg10 mi
4:00 AM72 °FClear.10 mph36%29.83 "Hg10 mi
3:30 AM72 °FClear.10 mph38%29.83 "Hg10 mi
3:00 AM70 °FClear.9 mph43%29.83 "Hg10 mi
2:30 AM70 °FClear.9 mph46%29.83 "Hg10 mi
2:00 AM68 °FClear.8 mph49%29.83 "Hg10 mi
1:30 AM70 °FClear.6 mph46%29.83 "Hg10 mi
1:00 AM72 °FClear.9 mph44%29.83 "Hg10 mi
12:30 AM68 °FClear.8 mph49%29.83 "Hg10 mi
12:00 AM68 °FClear.8 mph53%29.83 "Hg10 mi
11:30 PM
Fri, May 29
70 °FClear.9 mph50%29.83 "Hg10 mi
11:00 PM72 °FClear.9 mph47%29.83 "Hg10 mi
10:30 PM72 °FClear.7 mph47%29.83 "Hg10 mi
10:00 PM77 °FPassing clouds.6 mph34%29.83 "HgN/A
9:30 PM79 °FPassing clouds.6 mph32%29.80 "HgN/A
9:00 PM81 °FClear.2 mph28%29.80 "Hg10 mi
Weather by CustomWeather, © 2015

See weather overviewHow to use our weather pages